{"data":{"norad_id":68713,"intl_designator":"2026-081Q","name":"STARLINK-37305","alt_names":[],"object_type":"PAYLOAD","status":"ACTIVE","operator":null,"country":"US","launch_date":"2026-04-14","launch_site_code":"AFETR","launch_vehicle":null,"mission":null,"orbit_class":"UNKNOWN","rcs_meters":null,"size_class":null,"mass_kg":null,"dimensions":null,"purposes":["comms"],"wikipedia_slug":null,"has_3d_model":false,"image_url":null,"decayed_at":null,"tle_current":{"epoch":"2026-09-20T03:28:21.279936Z","epoch_age_seconds":74714,"freshness":"FRESH","line1":"1 68713U 26081Q   26263.14469074  .00016046  00000+0  48488-3 0  9997","line2":"2 68713  53.1570 207.3970 0001904  89.5855 270.5365 15.34409304 24568","mean_motion":15.34409304,"eccentricity":0.0001904,"inclination_deg":53.157,"raan_deg":207.397,"arg_perigee_deg":89.5855,"mean_anomaly_deg":270.5365,"bstar":0.00048488,"rev_number":2456,"period_min":93.847189028776,"perigee_km":461.37309618156,"apogee_km":463.97807761465,"semimajor_km":6840.8125868981,"source":"CELESTRAK","updated_at":"2026-09-20T09:00:43.960622Z"}}}